Location: Cahas Mountain Overlook
(37.0833°N, 80.1000°W)
Time: 20:05:46
(UTC-04:00)

Tiros 1 - Pass Details

Date: 13 February 2026
Orbit: 618 x 649 km, 48.4° (Epoch: 13 March)

Event Time Altitude Azimuth Distance (km) Brightness Sun altitude
Rises 13:10:26 0° 292° (WNW) 2,889 10.4 39.0°
Reaches altitude 10° 13:13:19 10° 311° (NW) 1,980 9.5 38.9°
Maximum altitude 13:16:37 19° 357° (N) 1,463 8.7 38.8°
Drops below altitude 10° 13:19:55 10° 44° (NE) 1,978 9.3 38.6°
Sets 13:22:48 0° 62° (ENE) 2,884 10.2 38.5°
